sat.trackr.live / text

‹ back to catalog

STARLINK-37094

NORAD 68241 · 2026-054K

PAYLOAD ACTIVE UNKNOWN

§ Identity

Operator
Country
US
Launch date
2026-03-17
Launch site
AFETR
Launch vehicle
Mass (kg)
RCS (m²)

Purposes: comms

External: N2YO · Heavens-Above · Gunter

§ Orbital elements

Epoch: 2026-09-19T23:13:07.642848Z

Period
93.85 min
Inclination
53.1576°
Eccentricity
0.0001783
Mean motion
15.34406995 rev/d
Perigee alt
461.5 km
Apogee alt
463.9 km
Semi-major
6,840.8 km
B*
3.4343e-4
RAAN
111.8832°
Arg perigee
19.5409°
Mean anomaly
340.5662°
Rev number
2,877

§ Raw data

STARLINK-370941 68241U 26054K   26262.96744957  .00011247  00000+0  34343-3 0  99912 68241  53.1576 111.8832 0001783  19.5409 340.5662 15.34406995 28777

JSON: /api/v1/satellites/68241 · /tle

For live sub-satellite position, see the globe view (requires WebGL).

§ Visibility from observer

Set your observer location to see the next 7 days of passes ≥ 10°. The values pass through the URL so the page stays shareable.

No JS? Fill the form by hand. The geolocation button needs JavaScript.